FW7766 Weather Reports


Display with metric or nautical units.
time (UTC)temp
F
wind
direction
speed
MPH
gust
MPH
rain 1hr
in
rain 24hr
in
rain mn
in
humidity
%
barometer
mb
20260506002621 71 0.0 0.0 0.00 0.00 0.00 44 1013.8
20260506001558 71 0.0 0.0 0.00 0.00 0.00 44 1013.8
20260506000554 72 0.0 0.0 0.00 0.00 0.00 44 1013.7
20260505235631 73 270 0.0 1.0 0.00 0.00 0.00 44 1013.7
20260505234548 73 0.0 1.0 0.00 0.00 0.00 44 1013.7
20260505233544 73 270 0.0 1.0 0.00 0.00 0.00 44 1013.6
20260505232541 74 270 0.0 1.0 0.00 0.00 0.00 44 1013.5
20260505231538 74 270 1.0 4.0 0.00 0.00 0.00 44 1013.4
20260505230534 75 252 1.0 2.0 0.00 0.00 0.00 44 1013.4
20260505225530 75 270 1.0 2.0 0.00 0.00 0.00 44 1013.4
20260505224528 75 219 1.0 3.0 0.00 0.00 0.00 44 1013.4
20260505223524 76 256 3.0 6.0 0.00 0.00 0.00 44 1013.5
20260505222521 76 270 2.0 3.0 0.00 0.00 0.00 44 1013.7
20260505221517 76 248 1.0 3.0 0.00 0.00 0.00 44 1013.6
20260505220613 76 270 1.0 2.0 0.00 0.00 0.00 44 1013.6
20260505215611 76 245 1.0 2.0 0.00 0.00 0.00 44 1013.7
20260505214607 76 261 2.0 5.0 0.00 0.00 0.00 44 1013.7
20260505213603 77 238 4.0 7.0 0.00 0.00 0.00 44 1013.9
20260505212601 77 251 2.0 3.0 0.00 0.00 0.00 44 1014.0
20260505211557 78 243 1.0 3.0 0.00 0.00 0.00 44 1013.8
20260505210553 78 270 2.0 3.0 0.00 0.00 0.00 44 1013.9
20260505205610 77 254 2.0 3.0 0.00 0.00 0.00 44 1014.1
20260505204546 77 250 2.0 3.0 0.00 0.00 0.00 44 1014.1
20260505203543 78 261 2.0 4.0 0.00 0.00 0.00 44 1014.1
20260505202539 78 261 1.0 2.0 0.00 0.00 0.00 44 1014.1
20260505201536 78 251 2.0 5.0 0.00 0.00 0.00 44 1014.1
20260505200533 77 270 2.0 3.0 0.00 0.00 0.00 44 1014.4
20260505195529 78 270 1.0 3.0 0.00 0.00 0.00 44 1014.5
20260505194526 78 252 2.0 3.0 0.00 0.00 0.00 44 1014.4
20260505193543 78 238 2.0 5.0 0.00 0.00 0.00 44 1014.6
20260505192519 78 208 1.0 3.0 0.00 0.00 0.00 44 1014.7
20260505191515 77 255 2.0 3.0 0.00 0.00 0.00 44 1014.8
20260505190612 77 244 2.0 4.0 0.00 0.00 0.00 44 1015.0
20260505185610 76 241 3.0 6.0 0.00 0.00 0.00 44 1015.3
20260505184606 76 246 3.0 7.0 0.00 0.00 0.00 44 1015.4
20260505183602 77 239 3.0 8.0 0.00 0.00 0.00 44 1015.6
20260505182559 77 270 1.0 2.0 0.00 0.00 0.00 44 1015.7
20260505181556 77 209 3.0 6.0 0.00 0.00 0.00 44 1015.8
20260505180551 77 270 1.0 2.0 0.00 0.00 0.00 44 1015.7
20260505175548 77 270 2.0 3.0 0.00 0.00 0.00 44 1015.8
20260505174544 76 270 2.0 5.0 0.00 0.00 0.00 44 1015.7
20260505173600 77 270 1.0 3.0 0.00 0.00 0.00 44 1015.9
20260505172617 76 270 1.0 3.0 0.00 0.00 0.00 44 1015.9
20260505171534 76 270 2.0 3.0 0.00 0.00 0.00 44 1016.1
20260505170530 76 270 1.0 3.0 0.00 0.00 0.00 44 1016.2
20260505165528 77 270 1.0 2.0 0.00 0.00 0.00 44 1016.4
20260505164523 77 270 1.0 3.0 0.00 0.00 0.00 44 1016.4
20260505163520 78 270 1.0 3.0 0.00 0.00 0.00 44 1016.5
20260505162537 77 270 3.0 4.0 0.00 0.00 0.00 44 1016.6
20260505161614 79 270 1.0 3.0 0.00 0.00 0.00 44 1016.6
20260505160610 78 270 1.0 2.0 0.00 0.00 0.00 44 1016.7
20260505152617 71 270 1.0 2.0 0.00 0.00 0.00 43 1017.1
20260505151613 69 0.0 0.0 0.00 0.00 0.00 40 1017.1
20260505150550 68 270 1.0 2.0 0.00 0.00 0.00 40 1017.1
20260505140529 63 270 1.0 2.0 0.00 0.00 0.00 47 1017.0
20260505124602 55 0.0 0.0 0.00 0.00 0.00 57 1016.9
20260505123558 54 0.0 0.0 0.00 0.00 0.00 60 1016.7
20260505122615 53 0.0 0.0 0.00 0.00 0.00 61 1016.6
20260505121551 52 0.0 0.0 0.00 0.00 0.00 63 1016.5
20260505120548 50 0.0 0.0 0.00 0.00 0.00 64 1016.5
20260505115545 49 0 0.0 1.0 0.00 0.00 0.00 63 1016.5
20260505114541 49 0.0 0.0 0.00 0.00 0.00 64 1016.4
20260505113538 48 0.0 0.0 0.00 0.00 0.00 66 1016.4
20260505112534 47 0.0 0.0 0.00 0.00 0.00 65 1016.3
20260505111531 48 0.0 0.0 0.00 0.00 0.00 65 1016.2
20260505110527 48 0.0 0.0 0.00 0.00 0.00 65 1016.0
20260505101610 50 0.0 0.0 0.00 0.00 0.00 61 1015.9
20260505100607 50 0.0 0.0 0.00 0.00 0.00 62 1015.9
20260505095604 50 0.0 0.0 0.00 0.00 0.00 63 1016.0
20260505094600 50 0.0 0.0 0.00 0.00 0.00 61 1015.9
20260505093558 51 0.0 0.0 0.00 0.00 0.00 60 1015.9
20260505092554 51 0.0 0.0 0.00 0.00 0.00 59 1015.8
20260505091550 51 0.0 0.0 0.00 0.00 0.00 58 1015.7
20260505090547 50 0.0 0.0 0.00 0.00 0.00 62 1015.6
20260505085544 50 0.0 0.0 0.00 0.00 0.00 63 1015.5
20260505084540 50 0.0 0.0 0.00 0.00 0.00 62 1015.5
20260505083537 50 0.0 0.0 0.00 0.00 0.00 61 1015.4
20260505082533 51 0.0 0.0 0.00 0.00 0.00 60 1015.3
20260505081530 51 0.0 0.0 0.00 0.00 0.00 60 1015.1
20260505080527 51 0.0 0.0 0.00 0.00 0.00 58 1015.1
20260505075523 52 0.0 0.0 0.00 0.00 0.00 57 1015.1
20260505074520 53 0.0 0.0 0.00 0.00 0.00 57 1015.0
20260505073516 53 0.0 0.0 0.00 0.00 0.00 56 1015.1
20260505072613 53 0.0 0.0 0.00 0.00 0.00 55 1015.0
20260505071609 54 0.0 0.0 0.00 0.00 0.00 55 1014.8
20260505070606 55 0.0 0.0 0.00 0.00 0.00 47 1014.9
20260505065603 55 0.0 0.0 0.00 0.00 0.00 47 1014.9
20260505064559 56 0.0 0.0 0.00 0.00 0.00 45 1014.8
20260505063556 58 0.0 0.0 0.00 0.00 0.00 42 1014.9
20260505062613 58 0.0 0.0 0.00 0.00 0.00 40 1014.8
20260505061549 58 0.0 0.0 0.00 0.00 0.00 40 1014.9
20260505060546 58 0.0 0.0 0.00 0.00 0.00 40 1014.9
20260505055542 58 0.0 0.0 0.00 0.00 0.00 40 1015.0
20260505054539 58 270 1.0 1.0 0.00 0.00 0.00 40 1014.9
20260505053615 58 0.0 0.0 0.00 0.00 0.00 43 1014.8
20260505052531 58 0.0 0.0 0.00 0.00 0.00 40 1014.8
20260505051528 58 0.0 0.0 0.00 0.00 0.00 40 1014.9
20260505050605 58 0.0 0.0 0.00 0.00 0.00 40 1014.9
20260505041608 60 0.0 0.0 0.00 0.00 0.00 40 1014.8
20260505040604 60 0.0 0.0 0.00 0.00 0.00 40 1014.8
20260505035559 59 0.0 0.0 0.00 0.00 0.00 40 1014.8
20260505034636 59 0.0 0.0 0.00 0.00 0.00 40 1014.9
20260505033612 59 0.0 0.0 0.00 0.00 0.00 40 1015.0
20260505032549 58 0.0 0.0 0.00 0.00 0.00 45 1015.0
20260505031546 59 0.0 0.0 0.00 0.00 0.00 45 1015.1
20260505030542 59 0.0 0.0 0.00 0.00 0.00 45 1015.1
20260505025539 59 0.0 0.0 0.00 0.00 0.00 45 1015.1
20260505024536 60 0.0 0.0 0.00 0.00 0.00 40 1015.1
20260505023532 61 0.0 0.0 0.00 0.00 0.00 40 1015.1
20260505022549 61 0.0 0.0 0.00 0.00 0.00 42 1015.0
20260505021530 62 0.0 0.0 0.00 0.00 0.00 40 1014.9
20260505020522 62 0.0 0.0 0.00 0.00 0.00 40 1014.8
20260505015519 62 0.0 0.0 0.00 0.00 0.00 40 1014.8
20260505014515 64 0.0 0.0 0.00 0.00 0.00 40 1014.8
20260505013612 66 0.0 0.0 0.00 0.00 0.00 44 1014.7
20260505012609 66 0.0 0.0 0.00 0.00 0.00 44 1014.6
20260505011625 66 0.0 0.0 0.00 0.00 0.00 44 1014.6
20260505010602 66 0.0 0.0 0.00 0.00 0.00 44 1014.4
20260505005559 66 0.0 0.0 0.00 0.00 0.00 44 1014.3
20260505004555 65 0.0 0.0 0.00 0.00 0.00 44 1014.2
20260505003552 67 0.0 0.0 0.00 0.00 0.00 44 1014.1